Year,Month,Day,Hour,Minute,Value (Times are PST for temperature in C)
2015,10,16,00,00,8.40
2015,10,16,00,01,8.40
2015,10,16,00,02,8.40
2015,10,16,00,03,8.40
2015,10,16,00,04,8.30
2015,10,16,00,05,8.30
2015,10,16,00,06,8.30
2015,10,16,00,07,8.30
2015,10,16,00,08,8.30
2015,10,16,00,09,8.20
2015,10,16,00,10,8.20
2015,10,16,00,11,8.20
2015,10,16,00,12,8.20
2015,10,16,00,13,8.20
2015,10,16,00,14,8.20
2015,10,16,00,15,8.20
2015,10,16,00,16,8.20
2015,10,16,00,17,8.20
2015,10,16,00,18,8.20
2015,10,16,00,19,8.10
2015,10,16,00,20,8.10
2015,10,16,00,21,8.10
2015,10,16,00,22,8.10
2015,10,16,00,23,8.10
2015,10,16,00,24,8.10
2015,10,16,00,25,8.20
2015,10,16,00,26,8.20
2015,10,16,00,27,8.20
2015,10,16,00,28,8.20
2015,10,16,00,29,8.20
2015,10,16,00,30,8.20
2015,10,16,00,31,8.20
2015,10,16,00,32,8.20
2015,10,16,00,33,8.20
2015,10,16,00,34,8.20
2015,10,16,00,35,8.20
2015,10,16,00,36,8.20
2015,10,16,00,37,8.20
2015,10,16,00,38,8.20
2015,10,16,00,39,8.20
2015,10,16,00,40,8.10
2015,10,16,00,41,8.10
2015,10,16,00,42,8.10
2015,10,16,00,43,8.10
2015,10,16,00,44,8.20
2015,10,16,00,45,8.20
2015,10,16,00,46,8.20
2015,10,16,00,47,8.20
2015,10,16,00,48,8.20
2015,10,16,00,49,8.20
2015,10,16,00,50,8.20
2015,10,16,00,51,8.20
2015,10,16,00,52,8.20
2015,10,16,00,53,8.20
2015,10,16,00,54,8.20
2015,10,16,00,55,8.20
2015,10,16,00,56,8.20
2015,10,16,00,57,8.20
2015,10,16,00,58,8.20
2015,10,16,00,59,8.20
2015,10,16,01,00,8.20
2015,10,16,01,01,8.10
2015,10,16,01,02,8.10
2015,10,16,01,03,8.10
2015,10,16,01,04,8.10
2015,10,16,01,05,8.10
2015,10,16,01,06,8.10
2015,10,16,01,07,8.00
2015,10,16,01,08,8.00
2015,10,16,01,09,8.00
2015,10,16,01,10,8.00
2015,10,16,01,11,8.00
2015,10,16,01,12,7.90
2015,10,16,01,13,7.90
2015,10,16,01,14,7.90
2015,10,16,01,15,7.90
2015,10,16,01,16,7.90
2015,10,16,01,17,7.90
2015,10,16,01,18,7.90
2015,10,16,01,19,7.90
2015,10,16,01,20,7.90
2015,10,16,01,21,7.90
2015,10,16,01,22,7.90
2015,10,16,01,23,7.90
2015,10,16,01,24,7.90
2015,10,16,01,25,7.80
2015,10,16,01,26,7.80
2015,10,16,01,27,7.80
2015,10,16,01,28,7.80
2015,10,16,01,29,7.80
2015,10,16,01,30,7.80
2015,10,16,01,31,7.80
2015,10,16,01,32,7.80
2015,10,16,01,33,7.80
2015,10,16,01,34,7.80
2015,10,16,01,35,7.80
2015,10,16,01,36,7.80
2015,10,16,01,37,7.80
2015,10,16,01,38,7.80
2015,10,16,01,39,7.80
2015,10,16,01,40,7.80
2015,10,16,01,41,7.70
2015,10,16,01,42,7.70
2015,10,16,01,43,7.60
2015,10,16,01,44,7.60
2015,10,16,01,45,7.60
2015,10,16,01,46,7.50
2015,10,16,01,47,7.50
2015,10,16,01,48,7.50
2015,10,16,01,49,7.50
2015,10,16,01,50,7.50
2015,10,16,01,51,7.50
2015,10,16,01,52,7.50
2015,10,16,01,53,7.50
2015,10,16,01,54,7.60
2015,10,16,01,55,7.50
2015,10,16,01,56,7.50
2015,10,16,01,57,7.50
2015,10,16,01,58,7.50
2015,10,16,01,59,7.50
2015,10,16,02,00,7.50
2015,10,16,02,01,7.50
2015,10,16,02,02,7.60
2015,10,16,02,03,7.70
2015,10,16,02,04,7.70
2015,10,16,02,05,7.80
2015,10,16,02,06,7.80
2015,10,16,02,07,7.80
2015,10,16,02,08,7.80
2015,10,16,02,09,7.80
2015,10,16,02,10,7.80
2015,10,16,02,11,7.80
2015,10,16,02,12,7.80
2015,10,16,02,13,7.80
2015,10,16,02,14,7.80
2015,10,16,02,15,7.80
2015,10,16,02,16,7.80
2015,10,16,02,17,7.80
2015,10,16,02,18,7.90
2015,10,16,02,19,7.90
2015,10,16,02,20,8.00
2015,10,16,02,21,8.10
2015,10,16,02,22,8.10
2015,10,16,02,23,8.20
2015,10,16,02,24,8.20
2015,10,16,02,25,8.30
2015,10,16,02,26,8.30
2015,10,16,02,27,8.30
2015,10,16,02,28,8.30
2015,10,16,02,29,8.30
2015,10,16,02,30,8.30
2015,10,16,02,31,8.30
2015,10,16,02,32,8.30
2015,10,16,02,33,8.30
2015,10,16,02,34,8.30
2015,10,16,02,35,8.30
2015,10,16,02,36,8.40
2015,10,16,02,37,8.50
2015,10,16,02,38,8.50
2015,10,16,02,39,8.60
2015,10,16,02,40,8.60
2015,10,16,02,41,8.70
2015,10,16,02,42,8.80
2015,10,16,02,43,8.80
2015,10,16,02,44,8.80
2015,10,16,02,45,8.90
2015,10,16,02,46,8.90
2015,10,16,02,47,8.90
2015,10,16,02,48,8.80
2015,10,16,02,49,8.80
2015,10,16,02,50,8.80
2015,10,16,02,51,8.80
2015,10,16,02,52,8.80
2015,10,16,02,53,8.80
2015,10,16,02,54,8.80
2015,10,16,02,55,8.90
2015,10,16,02,56,9.00
2015,10,16,02,57,9.10
2015,10,16,02,58,9.20
2015,10,16,02,59,9.20
2015,10,16,03,00,9.20
2015,10,16,03,01,9.20
2015,10,16,03,02,9.20
2015,10,16,03,03,9.20
2015,10,16,03,04,9.20
2015,10,16,03,05,9.20
2015,10,16,03,06,9.30
2015,10,16,03,07,9.50
2015,10,16,03,08,9.60
2015,10,16,03,09,9.60
2015,10,16,03,10,9.60
2015,10,16,03,11,9.70
2015,10,16,03,12,9.80
2015,10,16,03,13,9.90
2015,10,16,03,14,9.90
2015,10,16,03,15,9.90
2015,10,16,03,16,9.90
2015,10,16,03,17,9.90
2015,10,16,03,18,9.80
2015,10,16,03,19,9.80
2015,10,16,03,20,9.70
2015,10,16,03,21,9.70
2015,10,16,03,22,9.60
2015,10,16,03,23,9.60
2015,10,16,03,24,9.60
2015,10,16,03,25,9.60
2015,10,16,03,26,9.60
2015,10,16,03,27,9.60
2015,10,16,03,28,9.70
2015,10,16,03,29,9.80
2015,10,16,03,30,9.80
2015,10,16,03,31,10.00
2015,10,16,03,32,10.10
2015,10,16,03,33,10.20
2015,10,16,03,34,10.30
2015,10,16,03,35,10.30
2015,10,16,03,36,10.40
2015,10,16,03,37,10.50
2015,10,16,03,38,10.60
2015,10,16,03,39,10.70
2015,10,16,03,40,10.80
2015,10,16,03,41,10.80
2015,10,16,03,42,10.90
2015,10,16,03,43,10.90
2015,10,16,03,44,10.90
2015,10,16,03,45,10.90
2015,10,16,03,46,11.00
2015,10,16,03,47,11.00
2015,10,16,03,48,11.00
2015,10,16,03,49,11.00
2015,10,16,03,50,11.00
2015,10,16,03,51,11.00
2015,10,16,03,52,10.90
2015,10,16,03,53,10.90
2015,10,16,03,54,10.70
2015,10,16,03,55,10.60
2015,10,16,03,56,10.50
2015,10,16,03,57,10.40
2015,10,16,03,58,10.40
2015,10,16,03,59,10.30
2015,10,16,04,00,10.30
2015,10,16,04,01,10.20
2015,10,16,04,02,10.10
2015,10,16,04,03,10.10
2015,10,16,04,04,10.10
2015,10,16,04,05,10.10
2015,10,16,04,06,10.10
2015,10,16,04,07,10.10
2015,10,16,04,08,10.10
2015,10,16,04,09,10.00
2015,10,16,04,10,9.90
2015,10,16,04,11,9.80
2015,10,16,04,12,9.80
2015,10,16,04,13,9.70
2015,10,16,04,14,9.70
2015,10,16,04,15,9.70
2015,10,16,04,16,9.60
2015,10,16,04,17,9.60
2015,10,16,04,18,9.50
2015,10,16,04,19,9.50
2015,10,16,04,20,9.40
2015,10,16,04,21,9.40
2015,10,16,04,22,9.40
2015,10,16,04,23,9.40
2015,10,16,04,24,9.40
2015,10,16,04,25,9.40
2015,10,16,04,26,9.40
2015,10,16,04,27,9.30
2015,10,16,04,28,9.30
2015,10,16,04,29,9.30
2015,10,16,04,30,9.30
2015,10,16,04,31,9.30
2015,10,16,04,32,9.30
2015,10,16,04,33,9.30
2015,10,16,04,34,9.30
2015,10,16,04,35,9.40
2015,10,16,04,36,9.40
2015,10,16,04,37,9.50
2015,10,16,04,38,9.50
2015,10,16,04,39,9.40
2015,10,16,04,40,9.40
2015,10,16,04,41,9.40
2015,10,16,04,42,9.40
2015,10,16,04,43,9.40
2015,10,16,04,44,9.40
2015,10,16,04,45,9.40
2015,10,16,04,46,9.50
2015,10,16,04,47,9.50
2015,10,16,04,48,9.60
2015,10,16,04,49,9.70
2015,10,16,04,50,9.70
2015,10,16,04,51,9.80
2015,10,16,04,52,9.80
2015,10,16,04,53,9.80
2015,10,16,04,54,9.80
2015,10,16,04,55,9.80
2015,10,16,04,56,9.80
2015,10,16,04,57,9.80
2015,10,16,04,58,9.90
2015,10,16,04,59,9.90
2015,10,16,05,00,10.00
2015,10,16,05,01,10.00
2015,10,16,05,02,10.10
2015,10,16,05,03,10.10
2015,10,16,05,04,10.20
2015,10,16,05,05,10.30
2015,10,16,05,06,10.40
2015,10,16,05,07,10.60
2015,10,16,05,08,10.70
2015,10,16,05,09,10.70
2015,10,16,05,10,10.80
2015,10,16,05,11,10.80
2015,10,16,05,12,10.80
2015,10,16,05,13,10.80
2015,10,16,05,14,10.70
2015,10,16,05,15,10.70
2015,10,16,05,16,10.60
2015,10,16,05,17,10.60
2015,10,16,05,18,10.60
2015,10,16,05,19,10.60
2015,10,16,05,20,10.60
2015,10,16,05,21,10.50
2015,10,16,05,22,10.40
2015,10,16,05,23,10.30
2015,10,16,05,24,10.30
2015,10,16,05,25,10.20
2015,10,16,05,26,10.10
2015,10,16,05,27,10.00
2015,10,16,05,28,9.90
2015,10,16,05,29,9.80
2015,10,16,05,30,9.80
2015,10,16,05,31,9.70
2015,10,16,05,32,9.60
2015,10,16,05,33,9.60
2015,10,16,05,34,9.60
2015,10,16,05,35,9.60
2015,10,16,05,36,9.60
2015,10,16,05,37,9.60
2015,10,16,05,38,9.60
2015,10,16,05,39,9.50
2015,10,16,05,40,9.50
2015,10,16,05,41,9.60
2015,10,16,05,42,9.50
2015,10,16,05,43,9.50
2015,10,16,05,44,9.40
2015,10,16,05,45,9.40
2015,10,16,05,46,9.30
2015,10,16,05,47,9.30
2015,10,16,05,48,9.20
2015,10,16,05,49,9.20
2015,10,16,05,50,9.20
2015,10,16,05,51,9.20
2015,10,16,05,52,9.10
2015,10,16,05,53,9.10
2015,10,16,05,54,9.00
2015,10,16,05,55,8.90
2015,10,16,05,56,8.90
2015,10,16,05,57,8.80
2015,10,16,05,58,8.80
2015,10,16,05,59,8.80
2015,10,16,06,00,8.80
2015,10,16,06,01,8.80
2015,10,16,06,02,8.80
2015,10,16,06,03,8.80
2015,10,16,06,04,8.80
2015,10,16,06,05,8.90
2015,10,16,06,06,9.00
2015,10,16,06,07,9.00
2015,10,16,06,08,9.10
2015,10,16,06,09,9.20
2015,10,16,06,10,9.40
2015,10,16,06,11,9.50
2015,10,16,06,12,9.70
2015,10,16,06,13,9.80
2015,10,16,06,14,9.90
2015,10,16,06,15,10.10
2015,10,16,06,16,10.20
2015,10,16,06,17,10.20
2015,10,16,06,18,10.40
2015,10,16,06,19,10.60
2015,10,16,06,20,10.70
2015,10,16,06,21,10.80
2015,10,16,06,22,10.90
2015,10,16,06,23,10.90
2015,10,16,06,24,10.90
2015,10,16,06,25,10.90
2015,10,16,06,26,10.90
2015,10,16,06,27,10.90
2015,10,16,06,28,10.90
2015,10,16,06,29,11.00
2015,10,16,06,30,11.00
2015,10,16,06,31,11.10
2015,10,16,06,32,11.10
2015,10,16,06,33,11.10
2015,10,16,06,34,11.10
2015,10,16,06,35,11.10
2015,10,16,06,36,11.10
2015,10,16,06,37,11.00
2015,10,16,06,38,11.00
2015,10,16,06,39,10.90
2015,10,16,06,40,10.90
2015,10,16,06,41,10.80
2015,10,16,06,42,10.70
2015,10,16,06,43,10.60
2015,10,16,06,44,10.50
2015,10,16,06,45,10.30
2015,10,16,06,46,10.10
2015,10,16,06,47,10.00
2015,10,16,06,48,9.90
2015,10,16,06,49,9.80
2015,10,16,06,50,9.80
2015,10,16,06,51,9.70
2015,10,16,06,52,9.60
2015,10,16,06,53,9.60
2015,10,16,06,54,9.50
2015,10,16,06,55,9.40
2015,10,16,06,56,9.30
2015,10,16,06,57,9.20
2015,10,16,06,58,9.20
2015,10,16,06,59,9.00
2015,10,16,07,00,9.00
2015,10,16,07,01,8.90
2015,10,16,07,02,8.90
2015,10,16,07,03,8.90
2015,10,16,07,04,8.80
2015,10,16,07,05,8.90
2015,10,16,07,06,8.90
2015,10,16,07,07,8.90
2015,10,16,07,08,8.90
2015,10,16,07,09,8.90
2015,10,16,07,10,8.90
2015,10,16,07,11,8.90
2015,10,16,07,12,8.90
2015,10,16,07,13,8.90
2015,10,16,07,14,8.90
2015,10,16,07,15,8.90
2015,10,16,07,16,8.90
2015,10,16,07,17,8.90
2015,10,16,07,18,8.90
2015,10,16,07,19,8.90
2015,10,16,07,20,8.90
2015,10,16,07,21,8.80
2015,10,16,07,22,8.80
2015,10,16,07,23,8.80
2015,10,16,07,24,8.80
2015,10,16,07,25,8.80
2015,10,16,07,26,8.70
2015,10,16,07,27,8.70
2015,10,16,07,28,8.70
2015,10,16,07,29,8.60
2015,10,16,07,30,8.60
2015,10,16,07,31,8.60
2015,10,16,07,32,8.50
2015,10,16,07,33,8.50
2015,10,16,07,34,8.50
2015,10,16,07,35,8.50
2015,10,16,07,36,8.60
2015,10,16,07,37,8.60
2015,10,16,07,38,8.60
2015,10,16,07,39,8.60
2015,10,16,07,40,8.70
2015,10,16,07,41,8.70
2015,10,16,07,42,8.80
2015,10,16,07,43,8.90
2015,10,16,07,44,9.00
2015,10,16,07,45,9.10
2015,10,16,07,46,9.10
2015,10,16,07,47,9.10
2015,10,16,07,48,9.10
2015,10,16,07,49,9.00
2015,10,16,07,50,9.00
2015,10,16,07,51,9.00
2015,10,16,07,52,9.00
2015,10,16,07,53,9.00
2015,10,16,07,54,8.90
2015,10,16,07,55,8.90
2015,10,16,07,56,8.90
2015,10,16,07,57,8.90
2015,10,16,07,58,8.90
2015,10,16,07,59,8.80
2015,10,16,08,00,8.80
2015,10,16,08,01,8.80
2015,10,16,08,02,8.80
2015,10,16,08,03,8.80
2015,10,16,08,04,8.80
2015,10,16,08,05,8.80
2015,10,16,08,06,8.90
2015,10,16,08,07,8.90
2015,10,16,08,08,9.00
2015,10,16,08,09,9.10
2015,10,16,08,10,9.10
2015,10,16,08,11,9.10
2015,10,16,08,12,9.20
2015,10,16,08,13,9.20
2015,10,16,08,14,9.20
2015,10,16,08,15,9.30
2015,10,16,08,16,9.30
2015,10,16,08,17,9.40
2015,10,16,08,18,9.50
2015,10,16,08,19,9.60
2015,10,16,08,20,9.60
2015,10,16,08,21,9.70
2015,10,16,08,22,9.70
2015,10,16,08,23,9.80
2015,10,16,08,24,9.80
2015,10,16,08,25,9.90
2015,10,16,08,26,10.00
2015,10,16,08,27,10.00
2015,10,16,08,28,10.10
2015,10,16,08,29,10.20
2015,10,16,08,30,10.20
2015,10,16,08,31,10.20
2015,10,16,08,32,10.30
2015,10,16,08,33,10.30
2015,10,16,08,34,10.30
2015,10,16,08,35,10.40
2015,10,16,08,36,10.40
2015,10,16,08,37,10.40
2015,10,16,08,38,10.50
2015,10,16,08,39,10.50
2015,10,16,08,40,10.60
2015,10,16,08,41,10.70
2015,10,16,08,42,10.70
2015,10,16,08,43,10.80
2015,10,16,08,44,10.90
2015,10,16,08,45,11.00
2015,10,16,08,46,11.10
2015,10,16,08,47,11.20
2015,10,16,08,48,11.30
2015,10,16,08,49,11.40
2015,10,16,08,50,11.50
2015,10,16,08,51,11.60
2015,10,16,08,52,11.80
2015,10,16,08,53,11.90
2015,10,16,08,54,12.00
2015,10,16,08,55,12.10
2015,10,16,08,56,12.30
2015,10,16,08,57,12.40
2015,10,16,08,58,12.50
2015,10,16,08,59,12.60
2015,10,16,09,00,12.60
2015,10,16,09,01,12.70
2015,10,16,09,02,12.90
2015,10,16,09,03,13.00
2015,10,16,09,04,13.10
2015,10,16,09,05,13.20
2015,10,16,09,06,13.20
2015,10,16,09,07,13.20
2015,10,16,09,08,13.30
2015,10,16,09,09,13.40
2015,10,16,09,10,13.50
2015,10,16,09,11,13.60
2015,10,16,09,12,13.70
2015,10,16,09,13,13.70
2015,10,16,09,14,13.80
2015,10,16,09,15,13.80
2015,10,16,09,16,13.90
2015,10,16,09,17,13.90
2015,10,16,09,18,14.00
2015,10,16,09,19,14.10
2015,10,16,09,20,14.10
2015,10,16,09,21,14.20
2015,10,16,09,22,14.20
2015,10,16,09,23,14.30
2015,10,16,09,24,14.30
2015,10,16,09,25,14.40
2015,10,16,09,26,14.50
2015,10,16,09,27,14.50
2015,10,16,09,28,14.70
2015,10,16,09,29,14.70
2015,10,16,09,30,14.80
2015,10,16,09,31,14.90
2015,10,16,09,32,15.00
2015,10,16,09,33,15.00
2015,10,16,09,34,15.10
2015,10,16,09,35,15.20
2015,10,16,09,36,15.20
2015,10,16,09,37,15.30
2015,10,16,09,38,15.30
2015,10,16,09,39,15.40
2015,10,16,09,40,15.50
2015,10,16,09,41,15.60
2015,10,16,09,42,15.70
2015,10,16,09,43,15.80
2015,10,16,09,44,15.80
2015,10,16,09,45,15.90
2015,10,16,09,46,15.90
2015,10,16,09,47,15.90
2015,10,16,09,48,16.00
2015,10,16,09,49,16.10
2015,10,16,09,50,16.10
2015,10,16,09,51,16.20
2015,10,16,09,52,16.20
2015,10,16,09,53,16.30
2015,10,16,09,54,16.30
2015,10,16,09,55,16.40
2015,10,16,09,56,16.40
2015,10,16,09,57,16.50
2015,10,16,09,58,16.50
2015,10,16,09,59,16.50
2015,10,16,10,00,16.60
2015,10,16,10,01,16.60
2015,10,16,10,02,16.60
2015,10,16,10,03,16.60
2015,10,16,10,04,16.60
2015,10,16,10,05,16.60
2015,10,16,10,06,16.60
2015,10,16,10,07,16.60
2015,10,16,10,08,16.60
2015,10,16,10,09,16.60
2015,10,16,10,10,16.50
2015,10,16,10,11,16.50
2015,10,16,10,12,16.50
2015,10,16,10,13,16.50
2015,10,16,10,14,16.50
2015,10,16,10,15,16.50
2015,10,16,10,16,16.50
2015,10,16,10,17,16.50
2015,10,16,10,18,16.50
2015,10,16,10,19,16.50
2015,10,16,10,20,16.50
2015,10,16,10,21,16.60
2015,10,16,10,22,16.70
2015,10,16,10,23,16.70
2015,10,16,10,24,16.80
2015,10,16,10,25,16.80
2015,10,16,10,26,16.90
2015,10,16,10,27,16.90
2015,10,16,10,28,17.00
2015,10,16,10,29,17.00
2015,10,16,10,30,17.10
2015,10,16,10,31,17.10
2015,10,16,10,32,17.10
2015,10,16,10,33,17.10
2015,10,16,10,34,17.20
2015,10,16,10,35,17.20
2015,10,16,10,36,17.20
2015,10,16,10,37,17.20
2015,10,16,10,38,17.20
2015,10,16,10,39,17.20
2015,10,16,10,40,17.20
2015,10,16,10,41,17.20
2015,10,16,10,42,17.20
2015,10,16,10,43,17.20
2015,10,16,10,44,17.20
2015,10,16,10,45,17.20
2015,10,16,10,46,17.20
2015,10,16,10,47,17.20
2015,10,16,10,48,17.20
2015,10,16,10,49,17.30
2015,10,16,10,50,17.30
2015,10,16,10,51,17.30
2015,10,16,10,52,17.30
2015,10,16,10,53,17.30
2015,10,16,10,54,17.40
2015,10,16,10,55,17.40
2015,10,16,10,56,17.50
2015,10,16,10,57,17.50
2015,10,16,10,58,17.50
2015,10,16,10,59,17.60
2015,10,16,11,00,17.60
2015,10,16,11,01,17.60
2015,10,16,11,02,17.60
2015,10,16,11,03,17.60
2015,10,16,11,04,17.60
2015,10,16,11,05,17.50
2015,10,16,11,06,17.40
2015,10,16,11,07,17.40
2015,10,16,11,08,17.40
2015,10,16,11,09,17.40
2015,10,16,11,10,17.40
2015,10,16,11,11,17.30
2015,10,16,11,12,17.30
2015,10,16,11,13,17.20
2015,10,16,11,14,17.20
2015,10,16,11,15,17.20
2015,10,16,11,16,17.20
2015,10,16,11,17,17.20
2015,10,16,11,18,17.30
2015,10,16,11,19,17.30
2015,10,16,11,20,17.30
2015,10,16,11,21,17.30
2015,10,16,11,22,17.40
2015,10,16,11,23,17.40
2015,10,16,11,24,17.50
2015,10,16,11,25,17.50
2015,10,16,11,26,17.40
2015,10,16,11,27,17.40
2015,10,16,11,28,17.30
2015,10,16,11,29,17.30
2015,10,16,11,30,17.30
2015,10,16,11,31,17.30
2015,10,16,11,32,17.40
2015,10,16,11,33,17.40
2015,10,16,11,34,17.30
2015,10,16,11,35,17.30
2015,10,16,11,36,17.30
2015,10,16,11,37,17.30
2015,10,16,11,38,17.30
2015,10,16,11,39,17.40
2015,10,16,11,40,17.40
2015,10,16,11,41,17.50
2015,10,16,11,42,17.50
2015,10,16,11,43,17.60
2015,10,16,11,44,17.70
2015,10,16,11,45,17.80
2015,10,16,11,46,17.90
2015,10,16,11,47,17.90
2015,10,16,11,48,17.90
2015,10,16,11,49,17.90
2015,10,16,11,50,17.90
2015,10,16,11,51,17.90
2015,10,16,11,52,17.90
2015,10,16,11,53,17.90
2015,10,16,11,54,17.90
2015,10,16,11,55,17.90
2015,10,16,11,56,17.90
2015,10,16,11,57,18.00
2015,10,16,11,58,18.10
2015,10,16,11,59,18.20
2015,10,16,12,00,18.20
2015,10,16,12,01,18.20
2015,10,16,12,02,18.20
2015,10,16,12,03,18.20
2015,10,16,12,04,18.10
2015,10,16,12,05,18.00
2015,10,16,12,06,17.80
2015,10,16,12,07,17.80
2015,10,16,12,08,17.80
2015,10,16,12,09,17.90
2015,10,16,12,10,17.90
2015,10,16,12,11,18.10
2015,10,16,12,12,18.20
2015,10,16,12,13,18.20
2015,10,16,12,14,18.20
2015,10,16,12,15,18.20
2015,10,16,12,16,18.20
2015,10,16,12,17,18.10
2015,10,16,12,18,18.00
2015,10,16,12,19,18.00
2015,10,16,12,20,17.90
2015,10,16,12,21,18.00
2015,10,16,12,22,18.00
2015,10,16,12,23,18.00
2015,10,16,12,24,18.00
2015,10,16,12,25,18.00
2015,10,16,12,26,17.90
2015,10,16,12,27,17.90
2015,10,16,12,28,17.80
2015,10,16,12,29,17.70
2015,10,16,12,30,17.70
2015,10,16,12,31,17.70
2015,10,16,12,32,17.70
2015,10,16,12,33,17.70
2015,10,16,12,34,17.70
2015,10,16,12,35,17.80
2015,10,16,12,36,17.80
2015,10,16,12,37,17.80
2015,10,16,12,38,17.90
2015,10,16,12,39,18.00
2015,10,16,12,40,18.00
2015,10,16,12,41,18.10
2015,10,16,12,42,18.10
2015,10,16,12,43,18.00
2015,10,16,12,44,18.00
2015,10,16,12,45,17.90
2015,10,16,12,46,17.90
2015,10,16,12,47,18.00
2015,10,16,12,48,18.00
2015,10,16,12,49,18.10
2015,10,16,12,50,18.10
2015,10,16,12,51,18.10
2015,10,16,12,52,18.10
2015,10,16,12,53,18.10
2015,10,16,12,54,18.20
2015,10,16,12,55,18.20
2015,10,16,12,56,18.30
2015,10,16,12,57,18.30
2015,10,16,12,58,18.40
2015,10,16,12,59,18.50
2015,10,16,13,00,18.50
2015,10,16,13,01,18.40
2015,10,16,13,02,18.40
2015,10,16,13,03,18.40
2015,10,16,13,04,18.50
2015,10,16,13,05,18.60
2015,10,16,13,06,18.70
2015,10,16,13,07,18.70
2015,10,16,13,08,18.70
2015,10,16,13,09,18.70
2015,10,16,13,10,18.70
2015,10,16,13,11,18.80
2015,10,16,13,12,18.80
2015,10,16,13,13,18.80
2015,10,16,13,14,18.90
2015,10,16,13,15,18.90
2015,10,16,13,16,18.90
2015,10,16,13,17,18.90
2015,10,16,13,18,18.90
2015,10,16,13,19,18.80
2015,10,16,13,20,18.80
2015,10,16,13,21,18.70
2015,10,16,13,22,18.60
2015,10,16,13,23,18.50
2015,10,16,13,24,18.40
2015,10,16,13,25,18.40
2015,10,16,13,26,18.40
2015,10,16,13,27,18.30
2015,10,16,13,28,18.30
2015,10,16,13,29,18.30
2015,10,16,13,30,18.40
2015,10,16,13,31,18.40
2015,10,16,13,32,18.50
2015,10,16,13,33,18.60
2015,10,16,13,34,18.60
2015,10,16,13,35,18.70
2015,10,16,13,36,18.80
2015,10,16,13,37,18.90
2015,10,16,13,38,18.90
2015,10,16,13,39,19.00
2015,10,16,13,40,19.00
2015,10,16,13,41,18.90
2015,10,16,13,42,18.90
2015,10,16,13,43,18.90
2015,10,16,13,44,19.00
2015,10,16,13,45,19.10
2015,10,16,13,46,19.20
2015,10,16,13,47,19.30
2015,10,16,13,48,19.50
2015,10,16,13,49,19.60
2015,10,16,13,50,19.70
2015,10,16,13,51,19.70
2015,10,16,13,52,19.80
2015,10,16,13,53,19.70
2015,10,16,13,54,19.70
2015,10,16,13,55,19.60
2015,10,16,13,56,19.60
2015,10,16,13,57,19.60
2015,10,16,13,58,19.60
2015,10,16,13,59,19.70
2015,10,16,14,00,19.70
2015,10,16,14,01,19.80
2015,10,16,14,02,19.90
2015,10,16,14,03,19.90
2015,10,16,14,04,19.80
2015,10,16,14,05,19.80
2015,10,16,14,06,19.80
2015,10,16,14,07,19.70
2015,10,16,14,08,19.70
2015,10,16,14,09,19.70
2015,10,16,14,10,19.70
2015,10,16,14,11,19.80
2015,10,16,14,12,19.80
2015,10,16,14,13,19.80
2015,10,16,14,14,20.00
2015,10,16,14,15,20.00
2015,10,16,14,16,20.10
2015,10,16,14,17,20.10
2015,10,16,14,18,20.20
2015,10,16,14,19,20.30
2015,10,16,14,20,20.30
2015,10,16,14,21,20.40
2015,10,16,14,22,20.50
2015,10,16,14,23,20.60
2015,10,16,14,24,20.70
2015,10,16,14,25,20.80
2015,10,16,14,26,20.70
2015,10,16,14,27,20.70
2015,10,16,14,28,20.60
2015,10,16,14,29,20.60
2015,10,16,14,30,20.60
2015,10,16,14,31,20.60
2015,10,16,14,32,20.60
2015,10,16,14,33,20.70
2015,10,16,14,34,20.60
2015,10,16,14,35,20.60
2015,10,16,14,36,20.60
2015,10,16,14,37,20.60
2015,10,16,14,38,20.60
2015,10,16,14,39,20.70
2015,10,16,14,40,20.80
2015,10,16,14,41,20.90
2015,10,16,14,42,20.90
2015,10,16,14,43,20.90
2015,10,16,14,44,20.80
2015,10,16,14,45,20.80
2015,10,16,14,46,20.80
2015,10,16,14,47,20.80
2015,10,16,14,48,20.80
2015,10,16,14,49,20.80
2015,10,16,14,50,20.70
2015,10,16,14,51,20.80
2015,10,16,14,52,20.80
2015,10,16,14,53,20.70
2015,10,16,14,54,20.70
2015,10,16,14,55,20.60
2015,10,16,14,56,20.40
2015,10,16,14,57,20.40
2015,10,16,14,58,20.30
2015,10,16,14,59,20.20
2015,10,16,15,00,20.20
2015,10,16,15,01,20.30
2015,10,16,15,02,20.40
2015,10,16,15,03,20.40
2015,10,16,15,04,20.50
2015,10,16,15,05,20.60
2015,10,16,15,06,20.60
2015,10,16,15,07,20.60
2015,10,16,15,08,20.70
2015,10,16,15,09,20.90
2015,10,16,15,10,20.90
2015,10,16,15,11,20.90
2015,10,16,15,12,21.00
2015,10,16,15,13,21.00
2015,10,16,15,14,21.00
2015,10,16,15,15,20.90
2015,10,16,15,16,21.00
2015,10,16,15,17,21.10
2015,10,16,15,18,21.10
2015,10,16,15,19,21.10
2015,10,16,15,20,21.00
2015,10,16,15,21,20.80
2015,10,16,15,22,20.70
2015,10,16,15,23,20.60
2015,10,16,15,24,20.50
2015,10,16,15,25,20.50
2015,10,16,15,26,20.40
2015,10,16,15,27,20.30
2015,10,16,15,28,20.20
2015,10,16,15,29,20.10
2015,10,16,15,30,20.00
2015,10,16,15,31,19.80
2015,10,16,15,32,19.70
2015,10,16,15,33,19.70
2015,10,16,15,34,19.70
2015,10,16,15,35,19.60
2015,10,16,15,36,19.60
2015,10,16,15,37,19.60
2015,10,16,15,38,19.70
2015,10,16,15,39,19.70
2015,10,16,15,40,19.70
2015,10,16,15,41,19.80
2015,10,16,15,42,19.90
2015,10,16,15,43,19.90
2015,10,16,15,44,19.90
2015,10,16,15,45,19.90
2015,10,16,15,46,19.90
2015,10,16,15,47,19.90
2015,10,16,15,48,19.80
2015,10,16,15,49,19.80
2015,10,16,15,50,19.80
2015,10,16,15,51,19.80
2015,10,16,15,52,19.90
2015,10,16,15,53,19.90
2015,10,16,15,54,19.80
2015,10,16,15,55,19.80
2015,10,16,15,56,19.80
2015,10,16,15,57,19.80
2015,10,16,15,58,19.80
2015,10,16,15,59,19.90
2015,10,16,16,00,20.00
2015,10,16,16,01,20.10
2015,10,16,16,02,20.30
2015,10,16,16,03,20.40
2015,10,16,16,04,20.40
2015,10,16,16,05,20.30
2015,10,16,16,06,20.40
2015,10,16,16,07,20.40
2015,10,16,16,08,20.50
2015,10,16,16,09,20.60
2015,10,16,16,10,20.50
2015,10,16,16,11,20.40
2015,10,16,16,12,20.30
2015,10,16,16,13,20.20
2015,10,16,16,14,20.20
2015,10,16,16,15,20.20
2015,10,16,16,16,20.10
2015,10,16,16,17,20.10
2015,10,16,16,18,20.20
2015,10,16,16,19,20.30
2015,10,16,16,20,20.30
2015,10,16,16,21,20.20
2015,10,16,16,22,20.20
2015,10,16,16,23,20.20
2015,10,16,16,24,20.20
2015,10,16,16,25,20.10
2015,10,16,16,26,20.20
2015,10,16,16,27,20.20
2015,10,16,16,28,20.30
2015,10,16,16,29,20.40
2015,10,16,16,30,20.40
2015,10,16,16,31,20.50
2015,10,16,16,32,20.60
2015,10,16,16,33,20.60
2015,10,16,16,34,20.60
2015,10,16,16,35,20.70
2015,10,16,16,36,20.70
2015,10,16,16,37,20.70
2015,10,16,16,38,20.70
2015,10,16,16,39,20.80
2015,10,16,16,40,20.90
2015,10,16,16,41,21.00
2015,10,16,16,42,21.10
2015,10,16,16,43,21.20
2015,10,16,16,44,21.20
2015,10,16,16,45,21.20
2015,10,16,16,46,21.10
2015,10,16,16,47,20.80
2015,10,16,16,48,20.50
2015,10,16,16,49,20.30
2015,10,16,16,50,20.10
2015,10,16,16,51,19.90
2015,10,16,16,52,19.70
2015,10,16,16,53,19.60
2015,10,16,16,54,19.40
2015,10,16,16,55,19.20
2015,10,16,16,56,19.00
2015,10,16,16,57,18.80
2015,10,16,16,58,18.60
2015,10,16,16,59,18.50
2015,10,16,17,00,18.40
2015,10,16,17,01,18.40
2015,10,16,17,02,18.30
2015,10,16,17,03,18.30
2015,10,16,17,04,18.20
2015,10,16,17,05,18.20
2015,10,16,17,06,18.20
2015,10,16,17,07,18.20
2015,10,16,17,08,18.10
2015,10,16,17,09,18.00
2015,10,16,17,10,17.90
2015,10,16,17,11,17.80
2015,10,16,17,12,17.70
2015,10,16,17,13,17.60
2015,10,16,17,14,17.50
2015,10,16,17,15,17.40
2015,10,16,17,16,17.30
2015,10,16,17,17,17.20
2015,10,16,17,18,17.10
2015,10,16,17,19,17.10
2015,10,16,17,20,17.00
2015,10,16,17,21,17.00
2015,10,16,17,22,17.00
2015,10,16,17,23,17.00
2015,10,16,17,24,16.90
2015,10,16,17,25,16.90
2015,10,16,17,26,16.80
2015,10,16,17,27,16.80
2015,10,16,17,28,16.70
2015,10,16,17,29,16.70
2015,10,16,17,30,16.70
2015,10,16,17,31,16.70
2015,10,16,17,32,16.70
2015,10,16,17,33,16.70
2015,10,16,17,34,16.60
2015,10,16,17,35,16.60
2015,10,16,17,36,16.50
2015,10,16,17,37,16.40